Tracking 18030 objects as of 29-March-2017
HD Live streaming from Space Station
objects crossing your sky now

OPS 3367 A

Track OPS 3367 A now!
10-day predictions
OPS 3367 A is classified as:


NORAD ID: 734
Int'l Code: 1964-002B
Perigee: 792.8 km
Apogee: 813.0 km
Inclination: 99.0 °
Period: 100.8 minutes
Semi major axis: 7173 km
RCS: 0.3359 m2 (medium)
Launch date: January 19, 1964
Source: United States (US)
Launch site: AIR FORCE WESTERN TEST RANGE (AFWTR)
Your satellite tracking list
Your tracking list is empty





NASA's NSSDC Master Catalog

Two Line Element Set (TLE):
1   734U 64002B   17086.92284138 +.00000005 +00000-0 +20788-4 0  9999
2   734 098.9838 203.4340 0014072 211.4176 148.6165 14.28791648767701
Source of the keplerian elements: AFSPC